| time (UTC) | temp C | wind direction | speed KPH | gust KPH | rain 1hr cm | rain 24hr cm | rain mn cm | humidity % | barometer mb |
| 20260507061533 | 7 | 360 | 12.9 | 24.1 | 0.00 | 1.27 | 0.03 | 97 | 1007.1 |
| 20260507061009 | 7 | 360 | 8.0 | 17.7 | 0.00 | 1.27 | 0.03 | 97 | 1007.0 |
| 20260507060509 | 8 | 360 | 8.0 | 17.7 | 0.00 | 1.27 | 0.03 | 96 | 1006.7 |
| 20260507060039 | 8 | 360 | 9.7 | 17.7 | 0.03 | 1.27 | 0.03 | 97 | 1006.8 |
| 20260507055512 | 8 | 360 | 9.7 | 17.7 | 0.03 | 1.27 | 0.03 | 97 | 1006.6 |
| 20260507055012 | 8 | 360 | 11.3 | 19.3 | 0.03 | 1.27 | 0.03 | 96 | 1006.6 |
| 20260507054527 | 8 | 360 | 8.0 | 19.3 | 0.03 | 1.27 | 0.03 | 96 | 1006.6 |
| 20260507054012 | 8 | 360 | 9.7 | 24.1 | 0.03 | 1.27 | 0.03 | 97 | 1006.7 |
| 20260507053510 | 8 | 360 | 12.9 | 24.1 | 0.03 | 1.27 | 0.03 | 97 | 1006.6 |
| 20260507053030 | 8 | 360 | 12.9 | 24.1 | 0.03 | 1.27 | 0.03 | 97 | 1006.8 |
| 20260507052514 | 8 | 360 | 11.3 | 22.5 | 0.03 | 1.27 | 0.03 | 97 | 1006.8 |
| 20260507052012 | 8 | 360 | 9.7 | 22.5 | 0.03 | 1.27 | 0.03 | 96 | 1006.7 |
| 20260507051529 | 8 | 360 | 11.3 | 22.5 | 0.03 | 1.27 | 0.03 | 96 | 1006.5 |
| 20260507051009 | 8 | 360 | 12.9 | 22.5 | 0.03 | 1.27 | 0.03 | 96 | 1006.3 |
| 20260507050513 | 8 | 360 | 14.5 | 27.4 | 0.03 | 1.27 | 0.03 | 96 | 1006.5 |
| 20260507050035 | 8 | 360 | 14.5 | 27.4 | 0.00 | 1.24 | 0.00 | 96 | 1006.8 |
| 20260507045510 | 8 | 360 | 12.9 | 25.7 | 0.00 | 1.24 | 0.00 | 96 | 1006.6 |
| 20260507045011 | 8 | 360 | 11.3 | 25.7 | 0.00 | 1.24 | 0.00 | 96 | 1006.7 |
| 20260507044530 | 8 | 360 | 12.9 | 29.0 | 0.00 | 1.24 | 0.00 | 96 | 1006.6 |
| 20260507044011 | 8 | 360 | 14.5 | 29.0 | 0.03 | 1.24 | 0.00 | 96 | 1006.8 |
| 20260507043513 | 8 | 360 | 14.5 | 29.0 | 0.05 | 1.24 | 0.00 | 96 | 1006.6 |
| 20260507043032 | 9 | 360 | 16.1 | 33.8 | 0.05 | 1.24 | 0.00 | 96 | 1006.4 |
| 20260507042514 | 9 | 360 | 16.1 | 33.8 | 0.05 | 1.24 | 0.00 | 96 | 1006.3 |
| 20260507042012 | 9 | 360 | 20.9 | 29.0 | 0.05 | 1.24 | 0.00 | 96 | 1006.2 |
| 20260507041529 | 9 | 360 | 16.1 | 27.4 | 0.05 | 1.24 | 0.00 | 96 | 1006.2 |
| 20260507041013 | 10 | 360 | 16.1 | 25.7 | 0.05 | 1.24 | 0.00 | 97 | 1006.2 |
| 20260507040514 | 10 | 360 | 14.5 | 27.4 | 0.05 | 1.24 | 0.00 | 97 | 1006.2 |
| 20260507040031 | 10 | 360 | 16.1 | 33.8 | 0.05 | 1.24 | 0.00 | 97 | 1006.1 |
| 20260507035516 | 10 | 360 | 17.7 | 33.8 | 0.05 | 1.24 | 1.24 | 97 | 1006.1 |
| 20260507035015 | 10 | 360 | 17.7 | 41.8 | 0.05 | 1.24 | 1.24 | 97 | 1006.4 |
| 20260507034537 | 10 | 360 | 17.7 | 41.8 | 0.05 | 1.24 | 1.24 | 97 | 1006.4 |
| 20260507034014 | 10 | 360 | 20.9 | 41.8 | 0.03 | 1.22 | 1.22 | 97 | 1006.3 |
| 20260507033516 | 10 | 360 | 20.9 | 41.8 | 0.03 | 1.19 | 1.19 | 97 | 1006.2 |
| 20260507033032 | 11 | 360 | 20.9 | 41.8 | 0.03 | 1.19 | 1.19 | 97 | 1006.3 |
| 20260507032512 | 11 | 360 | 20.9 | 41.8 | 0.03 | 1.19 | 1.19 | 97 | 1006.6 |
| 20260507032014 | 11 | 360 | 24.1 | 41.8 | 0.03 | 1.19 | 1.19 | 97 | 1006.5 |
| 20260507031530 | 11 | 360 | 24.1 | 38.6 | 0.05 | 1.19 | 1.19 | 97 | 1006.3 |
| 20260507031013 | 11 | 360 | 22.5 | 37.0 | 0.05 | 1.19 | 1.19 | 97 | 1006.2 |
| 20260507030511 | 11 | 360 | 16.1 | 30.6 | 0.08 | 1.19 | 1.19 | 97 | 1006.2 |
| 20260507030032 | 11 | 360 | 17.7 | 30.6 | 0.08 | 1.19 | 1.19 | 97 | 1006.2 |
| 20260507025513 | 11 | 360 | 12.9 | 27.4 | 0.08 | 1.19 | 1.19 | 97 | 1006.1 |
| 20260507025014 | 12 | 360 | 14.5 | 29.0 | 0.08 | 1.19 | 1.19 | 97 | 1006.1 |
| 20260507024529 | 12 | 360 | 17.7 | 29.0 | 0.08 | 1.19 | 1.19 | 97 | 1006.2 |
| 20260507024017 | 12 | 360 | 19.3 | 29.0 | 0.08 | 1.19 | 1.19 | 97 | 1006.3 |
| 20260507023513 | 12 | 360 | 14.5 | 29.0 | 0.05 | 1.17 | 1.17 | 97 | 1006.3 |
| 20260507023029 | 12 | 360 | 19.3 | 30.6 | 0.05 | 1.17 | 1.17 | 97 | 1006.2 |
| 20260507022515 | 12 | 360 | 14.5 | 33.8 | 0.05 | 1.17 | 1.17 | 97 | 1006.2 |
| 20260507022016 | 13 | 360 | 16.1 | 33.8 | 0.05 | 1.17 | 1.17 | 97 | 1006.3 |
| 20260507021532 | 13 | 295 | 9.7 | 27.4 | 0.03 | 1.14 | 1.14 | 98 | 1006.2 |
| 20260507021014 | 13 | 234 | 11.3 | 27.4 | 0.03 | 1.14 | 1.14 | 98 | 1006.1 |
| 20260507020513 | 13 | 225 | 14.5 | 27.4 | 0.00 | 1.12 | 1.12 | 98 | 1006.1 |
| 20260507020040 | 13 | 248 | 14.5 | 30.6 | 0.00 | 1.12 | 1.12 | 98 | 1006.2 |
| 20260507015514 | 13 | 215 | 12.9 | 30.6 | 0.00 | 1.12 | 1.12 | 98 | 1006.1 |
| 20260507015013 | 13 | 186 | 14.5 | 30.6 | 0.00 | 1.12 | 1.12 | 98 | 1006.1 |
| 20260507014532 | 13 | 285 | 12.9 | 27.4 | 0.00 | 1.12 | 1.12 | 98 | 1006.1 |
| 20260507014012 | 13 | 225 | 12.9 | 35.4 | 0.00 | 1.12 | 1.12 | 98 | 1006.2 |
| 20260507013512 | 13 | 198 | 14.5 | 35.4 | 0.00 | 1.12 | 1.12 | 98 | 1006.2 |
| 20260507013045 | 13 | 232 | 9.7 | 27.4 | 0.00 | 1.12 | 1.12 | 98 | 1006.3 |
| 20260507012549 | 13 | 229 | 9.7 | 27.4 | 0.00 | 1.12 | 1.12 | 98 | 1006.3 |
| 20260507012013 | 13 | 249 | 11.3 | 27.4 | 0.00 | 1.12 | 1.12 | 98 | 1006.3 |
| 20260507011529 | 13 | 236 | 12.9 | 25.7 | 0.00 | 1.12 | 1.12 | 98 | 1006.4 |
| 20260507011014 | 13 | 220 | 14.5 | 29.0 | 0.00 | 1.12 | 1.12 | 98 | 1006.4 |
| 20260507010512 | 13 | 263 | 17.7 | 29.0 | 0.00 | 1.12 | 1.12 | 98 | 1006.3 |
| 20260507010036 | 13 | 232 | 12.9 | 29.0 | 0.00 | 1.12 | 1.12 | 98 | 1006.4 |
| 20260507005516 | 13 | 221 | 16.1 | 29.0 | 0.00 | 1.12 | 1.12 | 98 | 1006.4 |
| 20260507005011 | 13 | 228 | 14.5 | 29.0 | 0.00 | 1.12 | 1.12 | 97 | 1006.4 |
| 20260507004530 | 13 | 255 | 9.7 | 29.0 | 0.00 | 1.12 | 1.12 | 97 | 1006.4 |
| 20260507004011 | 13 | 229 | 8.0 | 25.7 | 0.00 | 1.12 | 1.12 | 97 | 1006.5 |
| 20260507003515 | 13 | 228 | 14.5 | 25.7 | 0.00 | 1.12 | 1.12 | 97 | 1006.4 |
| 20260507003031 | 13 | 216 | 9.7 | 30.6 | 0.00 | 1.12 | 1.12 | 97 | 1006.4 |
| 20260507002513 | 13 | 196 | 11.3 | 30.6 | 0.00 | 1.12 | 1.12 | 97 | 1006.2 |
| 20260507002013 | 13 | 194 | 16.1 | 30.6 | 0.00 | 1.12 | 1.12 | 97 | 1006.3 |
| 20260507001533 | 13 | 214 | 11.3 | 30.6 | 0.00 | 1.12 | 1.12 | 97 | 1006.2 |
| 20260507001014 | 13 | 204 | 12.9 | 30.6 | 0.00 | 1.12 | 1.12 | 98 | 1006.2 |
| 20260507000514 | 13 | 235 | 16.1 | 30.6 | 0.00 | 1.12 | 1.12 | 97 | 1006.2 |
| 20260507000029 | 13 | 212 | 17.7 | 30.6 | 0.00 | 1.12 | 1.12 | 97 | 1006.2 |
| 20260506235513 | 13 | 213 | 12.9 | 27.4 | 0.00 | 1.12 | 1.12 | 97 | 1006.1 |
| 20260506235014 | 13 | 207 | 12.9 | 33.8 | 0.00 | 1.12 | 1.12 | 97 | 1006.2 |
| 20260506234536 | 13 | 198 | 12.9 | 33.8 | 0.00 | 1.12 | 1.12 | 97 | 1006.3 |
| 20260506234015 | 13 | 201 | 11.3 | 33.8 | 0.00 | 1.12 | 1.12 | 97 | 1006.2 |
| 20260506233514 | 13 | 214 | 16.1 | 38.6 | 0.00 | 1.12 | 1.12 | 97 | 1006.4 |
| 20260506233049 | 13 | 233 | 14.5 | 38.6 | 0.00 | 1.12 | 1.12 | 97 | 1006.1 |
| 20260506232514 | 13 | 196 | 16.1 | 38.6 | 0.00 | 1.12 | 1.12 | 97 | 1006.2 |
| 20260506232014 | 13 | 188 | 17.7 | 33.8 | 0.00 | 1.12 | 1.12 | 97 | 1006.2 |
| 20260506231530 | 13 | 231 | 11.3 | 32.2 | 0.00 | 1.12 | 1.12 | 97 | 1006.2 |
| 20260506231017 | 13 | 188 | 12.9 | 33.8 | 0.00 | 1.12 | 1.12 | 97 | 1006.2 |
| 20260506230512 | 13 | 202 | 17.7 | 40.2 | 0.00 | 1.12 | 1.12 | 97 | 1006.2 |
| 20260506230031 | 13 | 217 | 17.7 | 40.2 | 0.00 | 1.12 | 1.12 | 97 | 1006.3 |
| 20260506225514 | 14 | 225 | 16.1 | 43.5 | 0.00 | 1.12 | 1.12 | 97 | 1006.3 |
| 20260506225011 | 14 | 191 | 17.7 | 43.5 | 0.00 | 1.12 | 1.12 | 97 | 1006.2 |
| 20260506224531 | 14 | 161 | 20.9 | 41.8 | 0.00 | 1.12 | 1.12 | 97 | 1006.3 |
| 20260506224012 | 14 | 155 | 24.1 | 48.3 | 0.00 | 1.12 | 1.12 | 97 | 1006.3 |
| 20260506223511 | 14 | 224 | 19.3 | 48.3 | 0.00 | 1.12 | 1.12 | 97 | 1006.4 |
| 20260506223030 | 14 | 213 | 20.9 | 48.3 | 0.00 | 1.12 | 1.12 | 97 | 1006.4 |
| 20260506222512 | 14 | 211 | 20.9 | 51.5 | 0.00 | 1.12 | 1.12 | 97 | 1006.4 |
| 20260506222018 | 14 | 207 | 17.7 | 51.5 | 0.03 | 1.12 | 1.12 | 97 | 1006.4 |
| 20260506221533 | 15 | 196 | 12.9 | 33.8 | 0.03 | 1.12 | 1.12 | 97 | 1006.4 |
| 20260506221010 | 15 | 236 | 14.5 | 38.6 | 0.03 | 1.12 | 1.12 | 97 | 1006.4 |
| 20260506220511 | 15 | 237 | 20.9 | 38.6 | 0.05 | 1.12 | 1.12 | 97 | 1006.4 |
| 20260506220031 | 15 | 242 | 16.1 | 41.8 | 0.05 | 1.12 | 1.12 | 97 | 1006.6 |
| 20260506215514 | 15 | 221 | 17.7 | 41.8 | 0.08 | 1.12 | 1.12 | 97 | 1006.5 |
| 20260506215012 | 15 | 211 | 24.1 | 40.2 | 0.08 | 1.12 | 1.12 | 97 | 1006.6 |
| 20260506214531 | 15 | 163 | 19.3 | 40.2 | 0.10 | 1.12 | 1.12 | 97 | 1006.7 |
| 20260506214017 | 15 | 217 | 14.5 | 41.8 | 0.10 | 1.12 | 1.12 | 97 | 1006.8 |
| 20260506213513 | 15 | 175 | 19.3 | 45.1 | 0.10 | 1.12 | 1.12 | 97 | 1006.7 |
| 20260506213032 | 15 | 192 | 17.7 | 45.1 | 0.13 | 1.12 | 1.12 | 97 | 1006.8 |
| 20260506212514 | 15 | 173 | 16.1 | 33.8 | 0.13 | 1.09 | 1.09 | 97 | 1006.9 |
| 20260506212013 | 15 | 196 | 12.9 | 33.8 | 0.18 | 1.09 | 1.09 | 97 | 1007.0 |
| 20260506211530 | 15 | 164 | 14.5 | 46.7 | 0.20 | 1.09 | 1.09 | 97 | 1006.9 |
| 20260506211014 | 15 | 193 | 17.7 | 46.7 | 0.20 | 1.07 | 1.07 | 97 | 1006.9 |
| 20260506210522 | 15 | 200 | 16.1 | 33.8 | 0.20 | 1.07 | 1.07 | 97 | 1007.0 |
| 20260506210036 | 15 | 161 | 11.3 | 33.8 | 0.23 | 1.07 | 1.07 | 97 | 1007.1 |
| 20260506205516 | 15 | 194 | 14.5 | 35.4 | 0.20 | 1.04 | 1.04 | 97 | 1007.1 |
| 20260506205019 | 15 | 186 | 14.5 | 35.4 | 0.20 | 1.04 | 1.04 | 96 | 1007.2 |
| 20260506204535 | 15 | 148 | 14.5 | 32.2 | 0.20 | 1.02 | 1.02 | 96 | 1007.2 |
| 20260506204014 | 15 | 194 | 14.5 | 32.2 | 0.20 | 1.02 | 1.02 | 96 | 1007.1 |
| 20260506203513 | 15 | 160 | 14.5 | 32.2 | 0.23 | 1.02 | 1.02 | 96 | 1007.2 |
| 20260506203031 | 15 | 198 | 9.7 | 27.4 | 0.20 | 0.99 | 0.99 | 96 | 1007.3 |
| 20260506202516 | 15 | 188 | 11.3 | 24.1 | 0.15 | 0.94 | 0.94 | 96 | 1007.3 |
| 20260506202014 | 15 | 184 | 6.4 | 17.7 | 0.13 | 0.91 | 0.91 | 96 | 1007.4 |
| 20260506201534 | 15 | 199 | 6.4 | 24.1 | 0.13 | 0.89 | 0.89 | 96 | 1007.4 |
| 20260506201016 | 15 | 204 | 9.7 | 24.1 | 0.10 | 0.86 | 0.86 | 96 | 1007.4 |
| 20260506200512 | 15 | 198 | 8.0 | 20.9 | 0.13 | 0.84 | 0.84 | 96 | 1007.3 |
| 20260506200039 | 15 | 175 | 6.4 | 20.9 | 0.18 | 0.84 | 0.84 | 96 | 1007.3 |
| 20260506195515 | 15 | 216 | 9.7 | 24.1 | 0.20 | 0.84 | 0.84 | 95 | 1007.4 |
| 20260506195017 | 15 | 209 | 9.7 | 24.1 | 0.23 | 0.84 | 0.84 | 95 | 1007.4 |
| 20260506194530 | 15 | 217 | 11.3 | 24.1 | 0.23 | 0.81 | 0.81 | 95 | 1007.5 |
| 20260506194012 | 15 | 224 | 9.7 | 29.0 | 0.25 | 0.81 | 0.81 | 95 | 1007.5 |
| 20260506193513 | 15 | 213 | 11.3 | 30.6 | 0.30 | 0.79 | 0.79 | 95 | 1007.6 |
| 20260506193032 | 15 | 216 | 11.3 | 33.8 | 0.36 | 0.79 | 0.79 | 95 | 1007.7 |
| 20260506192513 | 15 | 232 | 16.1 | 35.4 | 0.41 | 0.79 | 0.79 | 95 | 1007.8 |
| 20260506192014 | 15 | 209 | 12.9 | 35.4 | 0.51 | 0.79 | 0.79 | 95 | 1007.7 |
| 20260506191529 | 15 | 360 | 12.9 | 27.4 | 0.58 | 0.76 | 0.76 | 95 | 1007.9 |
| 20260506191014 | 15 | 231 | 9.7 | 24.1 | 0.66 | 0.74 | 0.74 | 95 | 1008.1 |
| 20260506190515 | 15 | 211 | 9.7 | 24.1 | 0.66 | 0.71 | 0.71 | 94 | 1008.1 |
| 20260506190030 | 15 | 209 | 9.7 | 24.1 | 0.64 | 0.66 | 0.66 | 94 | 1008.2 |
| 20260506185515 | 15 | 231 | 11.3 | 24.1 | 0.64 | 0.64 | 0.64 | 94 | 1008.2 |
| 20260506185014 | 15 | 221 | 12.9 | 25.7 | 0.61 | 0.61 | 0.61 | 94 | 1008.1 |
| 20260506184534 | 15 | 242 | 14.5 | 29.0 | 0.58 | 0.58 | 0.58 | 93 | 1008.2 |
| 20260506184017 | 15 | 244 | 11.3 | 29.0 | 0.53 | 0.53 | 0.53 | 93 | 1008.4 |
| 20260506183512 | 15 | 217 | 14.5 | 29.0 | 0.46 | 0.46 | 0.46 | 92 | 1008.6 |
| 20260506183034 | 16 | 360 | 14.5 | 29.0 | 0.41 | 0.41 | 0.41 | 91 | 1008.5 |
| 20260506182514 | 16 | 242 | 11.3 | 29.0 | 0.36 | 0.36 | 0.36 | 90 | 1008.5 |
| 20260506182014 | 16 | 206 | 16.1 | 29.0 | 0.25 | 0.25 | 0.25 | 88 | 1008.7 |
| 20260506181531 | 17 | 225 | 9.7 | 17.7 | 0.15 | 0.15 | 0.15 | 86 | 1008.6 |
| 20260506181013 | 17 | 235 | 6.4 | 16.1 | 0.08 | 0.08 | 0.08 | 83 | 1008.1 |
| 20260506180515 | 18 | 224 | 6.4 | 22.5 | 0.05 | 0.05 | 0.05 | 81 | 1008.6 |
| 20260506180030 | 18 | 200 | 4.8 | 22.5 | 0.03 | 0.03 | 0.03 | 78 | 1008.2 |
| 20260506175512 | 19 | 198 | 11.3 | 38.6 | 0.00 | 0.00 | 0.00 | 73 | 1008.1 |
| 20260506175012 | 19 | 148 | 16.1 | 38.6 | 0.00 | 0.00 | 0.00 | 69 | 1007.9 |
| 20260506174532 | 20 | 194 | 12.9 | 51.5 | 0.00 | 0.00 | 0.00 | 70 | 1007.9 |
| 20260506174014 | 20 | 211 | 22.5 | 51.5 | 0.00 | 0.00 | 0.00 | 67 | 1007.8 |
| 20260506173514 | 20 | 277 | 17.7 | 35.4 | 0.00 | 0.00 | 0.00 | 67 | 1007.8 |
| 20260506173038 | 20 | 164 | 19.3 | 32.2 | 0.00 | 0.00 | 0.00 | 67 | 1007.9 |
| 20260506172511 | 20 | 192 | 11.3 | 41.8 | 0.00 | 0.00 | 0.00 | 68 | 1007.9 |
| 20260506172013 | 20 | 182 | 14.5 | 41.8 | 0.00 | 0.00 | 0.00 | 68 | 1008.1 |
| 20260506171532 | 20 | 170 | 17.7 | 41.8 | 0.00 | 0.00 | 0.00 | 68 | 1008.1 |
| 20260506171017 | 20 | 360 | 17.7 | 40.2 | 0.00 | 0.00 | 0.00 | 68 | 1008.2 |
| 20260506170513 | 20 | 173 | 16.1 | 40.2 | 0.00 | 0.00 | 0.00 | 68 | 1008.2 |
| 20260506170030 | 20 | 179 | 9.7 | 27.4 | 0.00 | 0.00 | 0.00 | 69 | 1008.4 |
| 20260506165512 | 20 | 190 | 14.5 | 32.2 | 0.00 | 0.00 | 0.00 | 69 | 1008.5 |
| 20260506165012 | 20 | 169 | 12.9 | 32.2 | 0.00 | 0.00 | 0.00 | 69 | 1008.6 |
| 20260506164530 | 20 | 204 | 11.3 | 24.1 | 0.00 | 0.00 | 0.00 | 70 | 1008.8 |
| 20260506164014 | 20 | 360 | 11.3 | 24.1 | 0.00 | 0.00 | 0.00 | 70 | 1009.0 |
| 20260506163515 | 20 | 246 | 8.0 | 32.2 | 0.00 | 0.00 | 0.00 | 71 | 1009.0 |
| 20260506163033 | 19 | 180 | 12.9 | 32.2 | 0.00 | 0.00 | 0.00 | 71 | 1009.1 |
| 20260506162514 | 19 | 221 | 6.4 | 25.7 | 0.00 | 0.00 | 0.00 | 72 | 1009.3 |
| 20260506162013 | 19 | 188 | 9.7 | 32.2 | 0.00 | 0.00 | 0.00 | 72 | 1009.5 |
| 20260506161531 | 19 | 207 | 12.9 | 32.2 | 0.00 | 0.00 | 0.00 | 72 | 1009.6 |
| 20260506161013 | 19 | 207 | 9.7 | 30.6 | 0.00 | 0.00 | 0.00 | 72 | 1009.7 |
| 20260506160512 | 19 | 236 | 16.1 | 29.0 | 0.00 | 0.00 | 0.00 | 73 | 1009.9 |
| 20260506160030 | 18 | 238 | 12.9 | 30.6 | 0.00 | 0.00 | 0.00 | 73 | 1010.0 |
| 20260506155518 | 18 | 225 | 16.1 | 32.2 | 0.00 | 0.00 | 0.00 | 73 | 1010.1 |
| 20260506155011 | 18 | 196 | 11.3 | 32.2 | 0.00 | 0.00 | 0.00 | 73 | 1010.1 |
| 20260506154532 | 18 | 215 | 12.9 | 33.8 | 0.00 | 0.00 | 0.00 | 73 | 1010.3 |
| 20260506154012 | 18 | 229 | 14.5 | 37.0 | 0.00 | 0.00 | 0.00 | 73 | 1010.3 |
| 20260506153511 | 18 | 212 | 16.1 | 37.0 | 0.00 | 0.00 | 0.00 | 73 | 1010.4 |
| 20260506153031 | 19 | 234 | 11.3 | 32.2 | 0.00 | 0.00 | 0.00 | 73 | 1010.4 |
| 20260506152514 | 19 | 220 | 6.4 | 32.2 | 0.00 | 0.00 | 0.00 | 73 | 1010.3 |
| 20260506152014 | 18 | 234 | 6.4 | 27.4 | 0.00 | 0.00 | 0.00 | 74 | 1010.1 |
| 20260506151529 | 18 | 225 | 11.3 | 27.4 | 0.00 | 0.00 | 0.00 | 74 | 1010.1 |
| 20260506151014 | 18 | 200 | 8.0 | 32.2 | 0.00 | 0.00 | 0.00 | 74 | 1010.2 |
| 20260506150512 | 18 | 246 | 12.9 | 32.2 | 0.00 | 0.00 | 0.00 | 74 | 1010.4 |
| 20260506150030 | 18 | 190 | 11.3 | 25.7 | 0.00 | 0.00 | 0.00 | 75 | 1010.3 |
| 20260506145517 | 18 | 186 | 9.7 | 20.9 | 0.00 | 0.00 | 0.00 | 76 | 1010.1 |
| 20260506145011 | 18 | 209 | 8.0 | 20.9 | 0.00 | 0.00 | 0.00 | 76 | 1010.1 |
| 20260506144532 | 18 | 215 | 6.4 | 20.9 | 0.00 | 0.00 | 0.00 | 77 | 1010.2 |
| 20260506144013 | 18 | 185 | 8.0 | 19.3 | 0.00 | 0.00 | 0.00 | 77 | 1010.1 |
| 20260506143513 | 17 | 217 | 9.7 | 19.3 | 0.00 | 0.00 | 0.00 | 77 | 1010.2 |
| 20260506143034 | 17 | 244 | 9.7 | 25.7 | 0.00 | 0.00 | 0.00 | 78 | 1010.2 |
| 20260506142513 | 17 | 227 | 9.7 | 25.7 | 0.00 | 0.00 | 0.00 | 78 | 1010.0 |
| 20260506142010 | 17 | 224 | 12.9 | 25.7 | 0.00 | 0.00 | 0.00 | 78 | 1010.0 |
| 20260506141532 | 17 | 240 | 9.7 | 25.7 | 0.00 | 0.00 | 0.00 | 79 | 1009.9 |
| 20260506141014 | 17 | 155 | 11.3 | 25.7 | 0.00 | 0.00 | 0.00 | 79 | 1010.0 |
| 20260506140512 | 17 | 236 | 9.7 | 22.5 | 0.00 | 0.00 | 0.00 | 79 | 1010.0 |
| 20260506140031 | 17 | 223 | 6.4 | 22.5 | 0.00 | 0.00 | 0.00 | 79 | 1010.3 |
| 20260506135514 | 17 | 211 | 11.3 | 22.5 | 0.00 | 0.00 | 0.00 | 79 | 1010.1 |
| 20260506135014 | 16 | 223 | 12.9 | 22.5 | 0.00 | 0.00 | 0.00 | 79 | 1010.3 |
| 20260506134528 | 16 | 198 | 11.3 | 22.5 | 0.00 | 0.00 | 0.00 | 79 | 1010.5 |
| 20260506134017 | 16 | 221 | 8.0 | 30.6 | 0.00 | 0.00 | 0.00 | 79 | 1010.6 |
| 20260506133513 | 16 | 248 | 11.3 | 30.6 | 0.00 | 0.00 | 0.00 | 80 | 1010.5 |
| 20260506133032 | 16 | 233 | 16.1 | 30.6 | 0.00 | 0.00 | 0.00 | 80 | 1010.4 |
| 20260506132513 | 16 | 229 | 6.4 | 35.4 | 0.00 | 0.00 | 0.00 | 80 | 1010.4 |
| 20260506132015 | 16 | 213 | 16.1 | 35.4 | 0.00 | 0.00 | 0.00 | 80 | 1010.4 |
| 20260506131535 | 16 | 213 | 11.3 | 33.8 | 0.00 | 0.00 | 0.00 | 80 | 1010.4 |
| 20260506131012 | 16 | 239 | 16.1 | 43.5 | 0.00 | 0.00 | 0.00 | 80 | 1010.4 |
| 20260506130516 | 16 | 222 | 19.3 | 43.5 | 0.00 | 0.00 | 0.00 | 80 | 1010.3 |
| 20260506130030 | 16 | 215 | 20.9 | 38.6 | 0.00 | 0.00 | 0.00 | 80 | 1010.3 |
| 20260506125512 | 16 | 226 | 11.3 | 29.0 | 0.00 | 0.00 | 0.00 | 80 | 1010.3 |
| 20260506125018 | 16 | 242 | 11.3 | 29.0 | 0.00 | 0.00 | 0.00 | 81 | 1010.2 |
| 20260506124536 | 16 | 211 | 9.7 | 29.0 | 0.00 | 0.00 | 0.00 | 81 | 1010.3 |
| 20260506124014 | 16 | 197 | 9.7 | 29.0 | 0.00 | 0.00 | 0.00 | 81 | 1010.3 |
| 20260506123511 | 16 | 253 | 9.7 | 29.0 | 0.00 | 0.00 | 0.00 | 81 | 1010.4 |
| 20260506123039 | 16 | 234 | 14.5 | 29.0 | 0.00 | 0.00 | 0.00 | 81 | 1010.5 |
| 20260506122513 | 16 | 225 | 9.7 | 24.1 | 0.00 | 0.00 | 0.00 | 81 | 1010.4 |
| 20260506122011 | 16 | 226 | 9.7 | 24.1 | 0.00 | 0.00 | 0.00 | 81 | 1010.6 |
| 20260506121529 | 15 | 228 | 9.7 | 29.0 | 0.00 | 0.00 | 0.00 | 82 | 1010.4 |
| 20260506121014 | 15 | 246 | 12.9 | 29.0 | 0.00 | 0.00 | 0.00 | 82 | 1010.4 |
| 20260506120512 | 15 | 243 | 12.9 | 25.7 | 0.00 | 0.00 | 0.00 | 83 | 1010.6 |
| 20260506120052 | 15 | 233 | 12.9 | 24.1 | 0.00 | 0.00 | 0.00 | 83 | 1010.8 |
| 20260506115512 | 15 | 215 | 8.0 | 25.7 | 0.00 | 0.00 | 0.00 | 83 | 1010.8 |
| 20260506115011 | 15 | 227 | 9.7 | 25.7 | 0.00 | 0.00 | 0.00 | 83 | 1010.8 |
| 20260506114529 | 15 | 248 | 12.9 | 25.7 | 0.00 | 0.00 | 0.00 | 83 | 1010.9 |
| 20260506114013 | 15 | 234 | 11.3 | 24.1 | 0.00 | 0.00 | 0.00 | 84 | 1010.8 |
| 20260506113511 | 14 | 213 | 6.4 | 25.7 | 0.00 | 0.00 | 0.00 | 84 | 1010.8 |
| 20260506113029 | 14 | 242 | 8.0 | 25.7 | 0.00 | 0.00 | 0.00 | 84 | 1011.0 |
| 20260506112514 | 14 | 219 | 8.0 | 19.3 | 0.00 | 0.00 | 0.00 | 84 | 1011.0 |
| 20260506112012 | 14 | 207 | 11.3 | 22.5 | 0.00 | 0.00 | 0.00 | 84 | 1011.0 |
| 20260506111529 | 14 | 238 | 9.7 | 25.7 | 0.00 | 0.00 | 0.00 | 84 | 1011.2 |
| 20260506111012 | 14 | 229 | 14.5 | 25.7 | 0.00 | 0.00 | 0.00 | 84 | 1011.4 |
| 20260506110515 | 13 | 227 | 9.7 | 22.5 | 0.00 | 0.00 | 0.00 | 85 | 1011.2 |
| 20260506110030 | 13 | 194 | 9.7 | 25.7 | 0.00 | 0.00 | 0.00 | 84 | 1011.0 |
| 20260506105512 | 13 | 213 | 9.7 | 25.7 | 0.00 | 0.00 | 0.00 | 84 | 1011.1 |
| 20260506105013 | 13 | 240 | 14.5 | 29.0 | 0.00 | 0.00 | 0.00 | 85 | 1011.3 |
| 20260506104531 | 13 | 250 | 12.9 | 29.0 | 0.00 | 0.00 | 0.00 | 84 | 1011.1 |
| 20260506104016 | 13 | 194 | 11.3 | 22.5 | 0.00 | 0.00 | 0.00 | 84 | 1011.1 |
| 20260506103512 | 13 | 234 | 9.7 | 22.5 | 0.00 | 0.00 | 0.00 | 84 | 1011.1 |
| 20260506103032 | 13 | 187 | 11.3 | 19.3 | 0.00 | 0.00 | 0.00 | 84 | 1011.1 |
| 20260506102515 | 13 | 194 | 8.0 | 22.5 | 0.00 | 0.00 | 0.00 | 83 | 1011.1 |
| 20260506102011 | 13 | 223 | 11.3 | 22.5 | 0.00 | 0.00 | 0.00 | 83 | 1010.9 |
| 20260506101532 | 13 | 196 | 6.4 | 19.3 | 0.00 | 0.00 | 0.00 | 83 | 1010.8 |
| 20260506101013 | 13 | 188 | 9.7 | 22.5 | 0.00 | 0.00 | 0.00 | 82 | 1010.8 |
| 20260506100514 | 13 | 234 | 9.7 | 22.5 | 0.00 | 0.00 | 0.00 | 82 | 1011.0 |
| 20260506100033 | 13 | 228 | 11.3 | 22.5 | 0.00 | 0.00 | 0.00 | 83 | 1011.1 |
| 20260506095513 | 13 | 205 | 11.3 | 22.5 | 0.00 | 0.00 | 0.00 | 83 | 1010.9 |
| 20260506095011 | 13 | 223 | 12.9 | 22.5 | 0.00 | 0.00 | 0.00 | 82 | 1010.7 |
| 20260506094535 | 13 | 217 | 11.3 | 19.3 | 0.00 | 0.00 | 0.00 | 82 | 1010.7 |
| 20260506094012 | 13 | 200 | 8.0 | 24.1 | 0.00 | 0.00 | 0.00 | 82 | 1010.7 |
| 20260506093513 | 13 | 225 | 11.3 | 24.1 | 0.00 | 0.00 | 0.00 | 82 | 1010.9 |
| 20260506093043 | 13 | 233 | 12.9 | 25.7 | 0.00 | 0.00 | 0.00 | 82 | 1010.8 |
| 20260506092514 | 13 | 230 | 11.3 | 25.7 | 0.00 | 0.00 | 0.00 | 81 | 1010.8 |
| 20260506092014 | 13 | 213 | 11.3 | 22.5 | 0.00 | 0.00 | 0.00 | 81 | 1010.7 |
| 20260506091530 | 13 | 227 | 9.7 | 20.9 | 0.00 | 0.00 | 0.00 | 81 | 1010.7 |
| 20260506091015 | 13 | 227 | 9.7 | 19.3 | 0.00 | 0.00 | 0.00 | 81 | 1010.7 |
| 20260506090513 | 13 | 208 | 11.3 | 22.5 | 0.00 | 0.00 | 0.00 | 81 | 1010.7 |
| 20260506090029 | 13 | 227 | 9.7 | 22.5 | 0.00 | 0.00 | 0.00 | 81 | 1010.8 |
| 20260506085511 | 13 | 225 | 9.7 | 22.5 | 0.00 | 0.00 | 0.00 | 80 | 1010.7 |
| 20260506085011 | 13 | 221 | 9.7 | 24.1 | 0.00 | 0.00 | 0.00 | 80 | 1010.9 |
| 20260506084529 | 13 | 210 | 11.3 | 24.1 | 0.00 | 0.00 | 0.00 | 79 | 1010.8 |
| 20260506084012 | 13 | 211 | 9.7 | 19.3 | 0.00 | 0.00 | 0.00 | 79 | 1010.8 |
| 20260506083514 | 14 | 222 | 8.0 | 20.9 | 0.00 | 0.00 | 0.00 | 79 | 1010.7 |
| 20260506083030 | 14 | 247 | 11.3 | 20.9 | 0.00 | 0.00 | 0.00 | 79 | 1010.6 |
| 20260506082515 | 14 | 217 | 9.7 | 19.3 | 0.00 | 0.00 | 0.00 | 78 | 1010.6 |
| 20260506082014 | 14 | 191 | 9.7 | 19.3 | 0.00 | 0.00 | 0.00 | 78 | 1010.5 |
| 20260506081528 | 14 | 241 | 8.0 | 22.5 | 0.00 | 0.00 | 0.00 | 78 | 1010.5 |
| 20260506081014 | 14 | 219 | 11.3 | 22.5 | 0.00 | 0.00 | 0.00 | 78 | 1010.5 |
| 20260506080515 | 15 | 219 | 11.3 | 20.9 | 0.00 | 0.00 | 0.00 | 77 | 1010.5 |
| 20260506073515 | 14 | 223 | 11.3 | 20.9 | 0.00 | 0.00 | 0.00 | 78 | 1010.6 |
| 20260506073032 | 14 | 242 | 4.8 | 17.7 | 0.00 | 0.00 | 0.00 | 78 | 1010.7 |
| 20260506072512 | 14 | 256 | 4.8 | 19.3 | 0.00 | 0.00 | 0.00 | 78 | 1010.7 |
| 20260506072013 | 15 | 238 | 9.7 | 22.5 | 0.00 | 0.00 | 0.00 | 77 | 1010.6 |
| 20260506071535 | 15 | 233 | 6.4 | 22.5 | 0.00 | 0.00 | 0.00 | 77 | 1010.4 |
| 20260506071013 | 15 | 234 | 11.3 | 22.5 | 0.00 | 0.00 | 0.00 | 76 | 1010.3 |
| 20260506070512 | 15 | 227 | 8.0 | 22.5 | 0.00 | 0.00 | 0.00 | 76 | 1010.2 |
| 20260506062511 | 15 | 220 | 16.1 | 32.2 | 0.00 | 0.00 | 0.00 | 76 | 1009.8 |
| 20260506062014 | 15 | 257 | 12.9 | 32.2 | 0.00 | 0.00 | 0.00 | 77 | 1009.8 |